Overview Statistics Trail Chart Weather Telemetry Raw packets
 

This is the latest recevied weather packets stored in our database for station/object PA3FNT-13. If no packets are shown the sender has not sent any weather packets the latest 10 day(s).

<< 16 17 18 19 20 >>
Time Temp. Humidity Pressure Rain* Wind** Luminosity Snow
1787808644 28.33° C 38% 1014.1 hPa - - - -
1787807744 26.67° C 39% 1014.3 hPa - - - -
1787806844 26.67° C 39% 1014.2 hPa - - - -
1787805943 27.22° C 39% 1014.4 hPa - - - -
1787805043 27.22° C 39% 1014.4 hPa - - - -
1787804143 26.67° C 39% 1014.6 hPa - - - -
1787803243 26.67° C 40% 1014.5 hPa - - - -
1787802343 27.22° C 39% 1014.8 hPa - - - -
1787801443 27.22° C 39% 1014.9 hPa - - - -
1787800542 27.22° C 39% 1014.9 hPa - - - -
1787799642 27.22° C 39% 1014.9 hPa - - - -
1787798742 27.22° C 38% 1015.1 hPa - - - -
1787797842 27.78° C 37% 1015.2 hPa - - - -
1787796942 28.33° C 37% 1015 hPa - - - -
1787796042 27.78° C 36% 1015 hPa - - - -
1787795141 30.56° C 33% 1015.2 hPa - - - -
1787794241 27.22° C 39% 1015.4 hPa - - - -
1787793341 27.22° C 38% 1015.4 hPa - - - -
1787792441 27.22° C 38% 1015.5 hPa - - - -
1787791541 27.78° C 37% 1015.5 hPa - - - -
1787790640 27.78° C 37% 1015.8 hPa - - - -
1787789776 27.78° C 37% 1016 hPa - - - -
1787789740 27.78° C 37% 1016 hPa - - - -
1787788840 27.78° C 38% 1016.3 hPa - - - -
1787787940 27.78° C 38% 1016.3 hPa - - - -

* Rain since midnight (hover to see other rain measurements)
** Current wind speed in m/s (hover to see current wind gust speed)